FW9243 Weather Reports


time (UTC)temp
F
wind
direction
speed
knots
gust
knots
rain 1hr
in
rain 24hr
in
rain mn
in
humidity
%
barometer
mb
20260504190043 54 344 3.5 5.2 0.00 0.06 0.06 83 1015.6
20260504190038 54 272 1.7 5.2 0.00 0.11 0.11 100 1016.1
20260504185545 54 269 1.7 3.5 0.00 0.06 0.06 82 1015.6
20260504185043 54 344 1.7 2.6 0.00 0.06 0.06 82 1015.6
20260504184808 55 32 1.7 2.6 0.00 0.06 0.06 81 1015.6
20260504184544 55 265 0.9 2.6 0.00 0.11 0.11 100 1016.0
20260504184043 55 321 1.7 2.6 0.00 0.06 0.06 80 1015.5
20260504183543 55 1 0.9 3.5 0.00 0.06 0.06 79 1015.5
20260504183043 56 89 0.9 4.3 0.00 0.06 0.06 78 1015.5
20260504183035 55 330 0.9 4.3 0.00 0.11 0.11 75 1015.9
20260504182806 56 220 1.7 4.3 0.00 0.06 0.06 77 1015.4
20260504182042 57 290 1.7 4.3 0.00 0.06 0.06 75 1015.4
20260504181807 57 303 0.9 3.5 0.00 0.06 0.06 75 1015.5
20260504181538 57 0 0.0 4.3 0.00 0.11 0.11 95 1015.8
20260504181259 57 289 1.7 5.2 0.00 0.06 0.06 75 1015.5
20260504180807 58 296 3.5 7.8 0.00 0.06 0.06 74 1015.4
20260504180043 58 312 1.7 7.8 0.00 0.06 0.06 73 1015.5
20260504180039 57 44 3.5 7.0 0.00 0.11 0.11 73 1015.9
20260504175543 58 223 1.7 7.8 0.00 0.06 0.06 76 1015.4
20260504175031 58 219 1.7 7.8 0.00 0.06 0.06 78 1015.4
20260504174543 57 301 1.7 3.5 0.00 0.11 0.11 78 1015.8
20260504174531 58 331 1.7 5.2 0.00 0.06 0.06 78 1015.4
20260504174031 58 254 0.9 1.7 0.00 0.06 0.06 83 1015.4
20260504173530 57 237 0.9 1.7 0.00 0.06 0.06 83 1015.4
20260504173033 53 254 0.9 2.6 0.00 0.11 0.11 100 1015.9
20260504173031 57 250 0.9 2.6 0.00 0.06 0.06 84 1015.4
20260504172758 56 76 1.7 2.6 0.00 0.06 0.06 84 1015.5
20260504172031 56 197 1.7 2.6 0.00 0.06 0.06 84 1015.4
20260504171536 53 280 0.0 2.6 0.00 0.11 0.11 100 1015.8
20260504171524 0 152 0.0 0.0 0.00 0.06 0.06 1015.5
20260504171002 0 0.0 0.0 0.00 0.06 0.06 1015.4
20260504170722 0 0.0 0.0 0.00 0.06 0.06 1015.4
20260504170228 0 0.0 0.0 0.00 0.06 0.06 1015.4
20260504151002 54 152 0.0 0.9 0.01 0.06 0.05 90 1015.5
20260504150727 54 152 0.0 0.9 0.01 0.06 0.06 90 1015.6
20260504140932 54 178 0.0 1.7 0.01 0.05 0.04 90 1015.7
20260504140657 0 178 1.7 1.7 0.01 0.05 0.05 1015.8
20260504130425 55 206 0.9 0.9 0.03 0.03 0.03 84 1015.6
20260504110423 56 24 1.7 3.5 0.00 0.02 0.00 79 1015.7
20260504110413 57 251 1.7 3.5 0.00 0.02 0.00 79 1015.6
20260504100421 59 290 0.9 3.5 0.00 0.02 0.00 72 1015.4
20260504090142 55 330 1.7 2.6 0.00 0.02 0.00 89 1015.4
20260504081918 53 109 0.9 1.7 0.00 0.02 0.00 94 1015.6
20260504081535 52 0 0.0 1.7 0.00 0.89 0.00 100 1015.9
20260504081418 53 314 0.9 1.7 0.00 0.02 0.00 94 1015.6
20260504080918 53 324 1.7 1.7 0.00 0.02 0.00 94 1015.5
20260504080418 52 223 0.9 1.7 0.00 0.02 0.00 94 1015.5
20260504050642 47 63 0.9 1.7 0.00 0.02 0.00 94 1014.5
20260504045914 47 1 0.0 1.7 0.00 0.02 0.00 94 1014.5
20260504045414 47 135 0.0 1.7 0.00 0.02 0.00 94 1014.6
20260504044915 47 45 0.0 1.7 0.00 0.02 0.00 94 1014.6
20260504044533 46 144 1.7 1.7 0.00 0.89 0.00 100 1015.1
20260504044414 47 152 0.9 1.7 0.00 0.02 0.00 94 1014.7
20260504043915 47 89 0.9 1.7 0.00 0.02 0.00 94 1014.7
20260504043638 47 89 0.9 1.7 0.00 0.02 0.00 94 1014.7
20260504043041 46 137 0.9 0.9 0.00 0.89 0.00 100 1015.1
20260504042913 47 135 0.9 1.7 0.00 0.02 0.00 94 1014.7
20260504042637 47 109 0.9 1.7 0.00 0.02 0.00 94 1014.7
20260504041914 47 45 0.9 1.7 0.00 0.02 0.00 94 1014.7
20260504041635 47 109 1.7 2.6 0.00 0.02 0.00 94 1014.7
20260504041536 47 0 0.0 1.7 0.00 0.89 0.00 100 1015.2
20260504040913 47 28 1.7 2.6 0.00 0.02 0.00 94 1014.7
20260504040413 47 135 0.9 2.6 0.00 0.02 0.00 94 1014.8
20260504040041 47 0 0.0 0.9 0.00 0.89 0.00 100 1015.1
20260504035913 47 128 1.7 2.6 0.00 0.02 0.00 94 1014.8
20260504035413 47 28 0.9 1.7 0.00 0.02 0.00 94 1014.8
20260504034913 47 178 0.0 2.6 0.00 0.02 0.00 94 1014.8
20260504034538 0 3.5 0.0 0.00 0.89 0.00 1015.1
20260504034413 47 135 1.7 3.5 0.00 0.02 0.00 94 1014.7
20260504033915 47 216 0.9 3.5 0.00 0.02 0.00 94 1014.7
20260504033413 47 168 0.9 2.6 0.00 0.02 0.00 94 1014.8
20260504033033 47 162 0.9 0.9 0.00 0.89 0.00 100 1015.1
20260504032913 47 161 1.7 1.7 0.00 0.02 0.00 94 1014.7
20260504032412 47 213 0.0 1.7 0.00 0.02 0.00 94 1014.7
20260504032131 47 45 0.9 1.7 0.00 0.02 0.00 94 1014.8
20260504031539 47 162 0.9 1.7 0.00 0.89 0.00 100 1015.1
20260504031412 48 178 0.9 3.5 0.00 0.02 0.00 94 1014.7
20260504030912 48 223 0.9 3.5 0.00 0.02 0.00 94 1014.7
20260504030640 48 157 2.6 2.6 0.00 0.02 0.00 94 1014.7
20260504030040 47 150 1.7 1.7 0.00 0.89 0.00 100 1015.1
20260504025911 47 171 1.7 1.7 0.00 0.02 0.00 93 1014.7
20260504025412 47 234 0.9 1.7 0.00 0.02 0.00 93 1014.8
20260504024911 48 269 0.0 2.6 0.00 0.02 0.00 93 1014.7
20260504024535 47 0 0.0 1.7 0.00 0.89 0.00 100 1015.2
20260504024411 48 241 0.9 2.6 0.00 0.02 0.00 94 1014.8
20260504023912 48 161 1.7 2.6 0.00 0.02 0.00 93 1014.8
20260504023630 48 165 1.7 1.7 0.00 0.02 0.00 93 1014.8
20260504023039 48 0 0.0 0.9 0.00 0.89 0.00 100 1015.3
20260504022911 48 152 0.0 1.7 0.00 0.02 0.00 93 1014.8
20260504022411 48 157 0.9 2.6 0.00 0.02 0.00 93 1014.8
20260504021911 48 142 1.7 2.6 0.00 0.02 0.00 93 1014.8
20260504021537 48 153 0.9 1.7 0.00 0.89 0.00 100 1015.3
20260504021411 48 157 1.7 2.6 0.00 0.02 0.00 93 1014.9
20260504020910 48 152 0.9 1.7 0.00 0.02 0.00 93 1014.9
20260504020411 48 117 0.9 1.7 0.00 0.02 0.00 93 1014.9
20260504020036 48 0 0.0 0.9 0.00 0.89 0.00 100 1015.3
20260504015910 48 152 0.0 1.7 0.00 0.02 0.00 93 1014.9
20260504015636 48 206 0.9 2.6 0.00 0.02 0.00 93 1014.9
20260504015138 48 145 1.7 2.6 0.00 0.02 0.00 92 1014.9
20260504014540 49 0 0.0 0.9 0.00 0.89 0.00 100 1015.4
20260504014411 49 117 0.0 1.7 0.00 0.02 0.00 92 1014.9
20260504013910 49 135 0.0 0.9 0.00 0.02 0.00 92 1014.9
20260504013410 49 145 0.9 0.9 0.00 0.02 0.00 92 1015.1
20260504013041 49 0 0.0 0.9 0.00 0.89 0.00 100 1015.4
20260504012910 49 223 0.0 0.9 0.00 0.02 0.00 92 1015.1
20260504012410 49 1 0.0 0.9 0.00 0.02 0.00 92 1015.1
20260504011910 49 1 0.0 0.9 0.00 0.02 0.00 92 1015.0
20260504011540 49 221 0.9 0.9 0.00 0.89 0.00 100 1015.5
20260504011409 49 161 0.9 0.9 0.00 0.02 0.00 92 1015.0
20260504010908 49 152 0.0 0.9 0.00 0.02 0.00 92 1015.1
20260504010409 49 314 0.0 0.9 0.00 0.02 0.00 92 1015.1
20260504010040 49 0 0.0 0.9 0.00 0.89 0.00 100 1015.5
20260504005906 50 1 0.0 1.7 0.00 0.02 0.00 92 1015.1
20260504005405 50 117 0.0 1.7 0.00 0.02 0.00 92 1015.1
20260504004903 50 178 0.0 0.9 0.00 0.02 0.00 91 1015.0
20260504004538 50 0.0 0.9 0.00 0.89 0.00 100 1015.6
20260504004402 50 1 0.0 0.9 0.00 0.02 0.00 91 1015.1
20260504003903 50 89 0.0 0.9 0.00 0.02 0.00 91 1015.1
20260504003402 50 89 0.0 0.9 0.00 0.02 0.00 91 1015.0
20260504003035 50 0 0.0 0.9 0.00 0.89 0.00 100 1015.5
20260504002904 50 178 0.0 0.9 0.00 0.02 0.00 91 1015.1
20260504002402 50 135 0.0 0.9 0.00 0.02 0.00 91 1015.1
20260504001904 51 178 0.0 0.9 0.00 0.02 0.00 91 1015.1
20260504001621 51 135 0.0 0.9 0.00 0.02 0.00 91 1015.2
20260504001543 52 0 0.0 0.9 0.00 0.89 0.00 100 1015.6
20260504000903 51 152 0.0 0.9 0.00 0.02 0.00 91 1015.2
20260504000402 51 178 0.0 0.9 0.00 0.02 0.00 90 1015.2
20260504000036 52 0 0.0 0.0 0.00 0.89 0.00 100 1015.6
20260503235903 51 89 0.0 0.0 0.00 0.02 0.00 91 1015.1
20260503235402 51 45 0.0 0.9 0.00 0.02 0.00 91 1015.2
20260503234903 51 0 0.0 0.9 0.00 0.02 0.00 90 1015.2
20260503234600 52 0 0.0 0.9 0.00 0.89 0.00 100 1015.6
20260503234402 51 117 0.0 0.9 0.00 0.02 0.00 90 1015.2
20260503233903 51 135 0.0 0.9 0.00 0.02 0.00 90 1015.3
20260503233402 51 152 0.0 0.9 0.00 0.02 0.00 90 1015.2
20260503233045 52 137 0.0 0.9 0.00 0.89 0.00 100 1015.6
20260503232903 52 152 0.0 0.9 0.00 0.02 0.00 89 1015.2
20260503232402 52 135 0.0 0.9 0.00 0.02 0.00 89 1015.2
20260503231904 52 161 0.0 0.9 0.00 0.02 0.00 89 1015.3
20260503231536 52 0 0.0 0.9 0.00 0.89 0.00 100 1015.7
20260503231402 52 135 0.0 0.9 0.00 0.02 0.00 89 1015.3
20260503231122 52 135 0.0 0.9 0.00 0.02 0.00 89 1015.4
20260503230402 52 152 0.0 0.9 0.00 0.02 0.00 89 1015.3
20260503230033 52 126 0.0 0.9 0.00 0.89 0.00 100 1015.8
20260503225903 52 178 0.0 0.9 0.00 0.02 0.00 89 1015.4
20260503225620 52 135 0.0 0.0 0.00 0.02 0.00 89 1015.4
20260503224903 53 135 0.0 0.0 0.00 0.02 0.00 89 1015.4
20260503224623 53 135 0.0 0.9 0.00 0.02 0.00 89 1015.4
20260503224542 52 0 0.0 0.0 0.00 0.89 0.00 100 1015.8
20260503223903 53 45 0.0 0.9 0.00 0.02 0.00 89 1015.3
20260503223402 53 178 0.0 0.9 0.00 0.02 0.00 89 1015.4
20260503223040 52 0 0.0 0.9 0.00 0.89 0.00 100 1015.8
20260503222903 53 89 0.0 0.9 0.00 0.02 0.00 89 1015.4
20260503222401 53 161 0.0 0.9 0.00 0.02 0.00 88 1015.4
20260503221903 53 135 0.0 0.9 0.00 0.02 0.00 88 1015.4
20260503221539 52 0 0.0 0.0 0.00 0.89 0.00 100 1015.8
20260503221402 53 135 0.0 0.9 0.00 0.02 0.00 88 1015.4
20260503221126 53 89 0.0 0.9 0.00 0.02 0.00 88 1015.3
20260503220402 53 135 0.0 0.9 0.00 0.02 0.00 88 1015.4
20260503220126 53 135 0.0 0.9 0.00 0.02 0.02 88 1015.4
20260503220039 53 0 0.0 0.9 0.00 0.89 0.00 100 1015.8
20260503215402 53 161 0.0 0.9 0.00 0.02 0.02 87 1015.3
20260503215115 53 314 0.0 1.7 0.00 0.02 0.02 88 1015.2
20260503215054 53 135 0.9 1.7 0.00 0.02 0.02 87 1015.3
20260503214533 53 0 0.0 0.9 0.00 0.89 0.89 100 1015.7
20260503213902 53 135 0.0 1.7 0.00 0.02 0.02 88 1015.2
20260503213402 53 269 0.0 1.7 0.00 0.02 0.02 88 1015.2
20260503213036 53 338 0.0 0.9 0.00 0.89 0.89 100 1015.7
20260503212901 53 269 0.9 1.7 0.00 0.02 0.02 88 1015.2
20260503212402 53 89 0.9 1.7 0.00 0.02 0.02 88 1015.1
20260503211901 54 321 1.7 1.7 0.00 0.02 0.02 88 1015.2
20260503211627 54 331 0.9 1.7 0.00 0.02 0.02 88 1015.1
20260503211535 53 321 0.9 1.7 0.00 0.89 0.89 100 1015.6
20260503210902 54 16 0.9 1.7 0.00 0.02 0.02 88 1015.1
20260503210402 54 331 0.9 0.9 0.00 0.02 0.02 87 1015.1
20260503210032 53 301 0.9 1.7 0.00 0.89 0.89 100 1015.4
20260503205902 54 28 0.9 0.9 0.00 0.02 0.02 87 1015.0
20260503205403 54 306 0.0 0.9 0.00 0.02 0.02 86 1014.9
20260503204902 54 1 0.9 1.7 0.00 0.02 0.02 86 1014.8
20260503204543 54 9 0.9 1.7 0.00 0.89 0.89 100 1015.2
20260503204403 54 324 0.9 1.7 0.00 0.02 0.02 86 1014.9
20260503204333 54 45 0.9 1.7 0.00 0.02 0.02 86 1014.8
20260503204056 54 1 0.0 1.7 0.00 0.02 0.02 86 1014.8
20260503203052 54 0 0.0 1.7 0.00 0.89 0.89 100 1015.1
20260503202902 54 331 0.9 1.7 0.00 0.02 0.02 86 1014.7
20260503202402 55 331 0.9 1.7 0.00 0.02 0.02 86 1014.7
20260503201902 55 178 0.0 0.9 0.00 0.02 0.02 86 1014.6
20260503201624 55 45 0.0 0.9 0.00 0.02 0.02 85 1014.6
20260503201539 54 0 0.0 1.7 0.00 0.89 0.89 100 1014.9
20260503201129 55 45 0.0 2.6 0.00 0.02 0.02 85 1014.4
20260503200359 55 20 0.9 2.6 0.00 0.02 0.02 85 1014.3
20260503200036 55 325 0.9 0.9 0.00 0.89 0.89 100 1014.7
20260503195849 55 269 0.9 1.7 0.00 0.02 0.02 85 1014.3
20260503195558 55 344 0.0 1.7 0.00 0.02 0.02 85 1014.3
20260503194837 55 331 0.0 1.7 0.00 0.03 0.02 85 1014.3
20260503194600 55 320 0.9 1.7 0.00 0.03 0.02 84 1014.1
20260503194537 55 239 0.9 1.7 0.00 0.89 0.89 100 1014.6
20260503193835 55 314 0.9 3.5 0.00 0.03 0.02 84 1014.0
20260503193331 55 331 0.9 3.5 0.00 0.04 0.02 84 1014.0
20260503193056 56 296 0.9 2.6 0.00 0.04 0.02 84 1013.9
20260503193037 55 312 0.9 2.6 0.00 0.89 0.89 100 1014.3
20260503192331 56 320 1.7 2.6 0.00 0.06 0.02 84 1013.8
20260503191830 56 45 0.0 1.7 0.00 0.06 0.02 84 1013.9
20260503191538 55 0 0.9 2.6 0.00 0.89 0.89 100 1014.3
20260503191331 56 341 0.9 3.5 0.00 0.06 0.02 84 1013.8
20260503190830 56 279 0.9 3.5 0.00 0.07 0.02 83 1013.8
20260503190331 56 72 1.7 2.6 0.00 0.07 0.02 84 1013.6